TimeEDT,TemperatureF,Dew PointF,Humidity,Sea Level PressureIn,VisibilityMPH,Wind Direction,Wind SpeedMPH,Gust SpeedMPH,PrecipitationIn,Events,Conditions,WindDirDegrees,DateUTC
12:53 AM,57.0,37.0,47,30.09,10.0,East,6.9,-,N/A,,Clear,90,2013-05-05 04:53:00
1:53 AM,55.9,37.9,51,30.08,10.0,ENE,5.8,-,N/A,,Clear,70,2013-05-05 05:53:00
2:53 AM,55.0,39.0,55,30.07,10.0,ENE,4.6,-,N/A,,Clear,60,2013-05-05 06:53:00
3:53 AM,54.0,39.9,59,30.07,10.0,East,4.6,-,N/A,,Clear,80,2013-05-05 07:53:00
4:53 AM,55.0,41.0,59,30.07,10.0,East,5.8,-,N/A,,Clear,90,2013-05-05 08:53:00
5:53 AM,55.0,42.1,62,30.07,10.0,East,5.8,-,N/A,,Clear,100,2013-05-05 09:53:00
6:53 AM,55.0,42.1,62,30.08,10.0,East,6.9,-,N/A,,Clear,90,2013-05-05 10:53:00
7:53 AM,57.0,43.0,59,30.09,10.0,East,6.9,-,N/A,,Clear,100,2013-05-05 11:53:00
8:53 AM,59.0,44.1,58,30.10,10.0,ESE,5.8,-,N/A,,Clear,110,2013-05-05 12:53:00
9:53 AM,61.0,43.0,52,30.11,10.0,ESE,10.4,-,N/A,,Clear,120,2013-05-05 13:53:00
10:53 AM,64.0,43.0,46,30.10,10.0,Variable,5.8,-,N/A,,Clear,0,2013-05-05 14:53:00
11:53 AM,66.9,39.9,37,30.09,10.0,East,11.5,-,N/A,,Clear,90,2013-05-05 15:53:00
12:53 PM,68.0,35.1,30,30.08,10.0,East,12.7,18.4,N/A,,Clear,90,2013-05-05 16:53:00
2:53 PM,71.1,35.1,27,30.06,10.0,ESE,15.0,18.4,N/A,,Clear,110,2013-05-05 18:53:00
3:53 PM,72.0,35.1,26,30.04,10.0,ESE,12.7,-,N/A,,Clear,120,2013-05-05 19:53:00
4:53 PM,71.1,33.1,25,30.03,10.0,East,15.0,19.6,N/A,,Clear,100,2013-05-05 20:53:00
5:53 PM,70.0,34.0,27,30.03,10.0,East,10.4,-,N/A,,Clear,90,2013-05-05 21:53:00
6:53 PM,69.1,32.0,25,30.02,10.0,ESE,13.8,18.4,N/A,,Clear,110,2013-05-05 22:53:00
7:53 PM,66.0,34.0,30,30.02,10.0,East,5.8,-,N/A,,Clear,100,2013-05-05 23:53:00
8:53 PM,64.0,34.0,33,30.02,10.0,Calm,Calm,-,N/A,,Clear,0,2013-05-06 00:53:00
9:53 PM,54.0,39.0,57,30.04,10.0,Calm,Calm,-,N/A,,Clear,0,2013-05-06 01:53:00
10:53 PM,53.1,37.9,57,30.04,10.0,Calm,Calm,-,N/A,,Clear,0,2013-05-06 02:53:00
11:53 PM,55.9,37.9,51,30.03,10.0,NE,5.8,-,N/A,,Clear,40,2013-05-06 03:53:00